SCP
0 0 0 0 0 0 0 0 0 0 0 0 0 0 0 0 0 0 0 0 0 0 0 0 0 0 0 0 0 0 0 0 0 0 0 0 0 0
0 0 0 0 0 0 0 0 0 0 0 0 0 0 0 0 0 0 0 0 0 0 0 0 0 0 0 0 0 0 0 0 0 0 0 0 0 0
0 0 0 0 0 0 0 0 0 0 0 0 0 0 0 0 0 0 0 0 0 0 0 0 0 0 0 0 0 0 0 0 0 0 0 0 0 0
0 0 0 0 0 0 0 0 0 0 0 0 0 0 0 0 0 0 0 0 0 0 0 0 0 0 0 0 0 0 0 0 0 0 0 0 0 0
0 0 0 0 0 0 0 0 0 0 0 0 0 0 0 0 0 0 0 0 0 0 0 0 0 0 0 0 0 0 0 0 0 0 0 0 0 0
0 0 0 0 0 0 0 0 0 0 0 0 0 0 0 0 0 0 0 0 0 0 0 0 0 0 0 0 0 0 0 0 0 0 0 0 0 0
0 0 0 0 0 0 0 0 0 0 0 0 0 0 0 0 0 0 0 0 0 0 0 0 0 0 0 0 0 0 0 0 0 0 0 0 0 0
0 0 0 0 0 0 0 0 0 0 0 0 0 0 0 0 0 0 0 0 0 0 0 0 0 0 0 0 0 0 0 0 0 0 0 0 0 0
0 0 0 0 0 0 0 0 0 0 0 0 0 0 0 0 0 0 0 0 0 0 0 0 0 0 0 0 0 0 0 0 0 0 0 0 0 0
0 0 0 0 0 0 0 0 0 0 0 0 0 0 0 0 0 0 0 0 0 0 0 0 0 0 0 0 0 0 0 0 0 0 0 0 0 0
0 0 0 0 0 0 0 0 0 0 0 0 0 0 0 0 0 0 0 0 0 0 0 0 0 0 0 0 0 0 0 0 0 0 0 -0 -0 -0
0 0 0 0 0 0 0 0 0 0 0 0 0 0 0 0 0 0 0 0 0 0 0 0 0 0 0 0 0 0 0 0 0 0 0 0 -0 -0
0 0 0 0 0 0 0 0 0 0 0 0 0 0 0 0 0 0 0 0 0 0 0 0 0 0 0 0 0 0 0 0 0 0 0 0 0 0
0 0 0 0 0 0 0 0 0 0 0 0 0 0 0 0 0 0 0 0 0 0 0 0 0 0 0 0 0 0 0 0 0 0 0 0 0 0
0 0 0 0 0 0 0 0 0 0 0 0 0 0 0 0 0 0 0 0 0 0 0 0 0 0 0 0 0 0 0 0 0 0 0 0 0 0
0 0 0 0 0 0 0 0 0 0 0 0 0 0 0 0 0 0 0 0 0 0 0 0 0 0 0 0 0 0 0 0 0 0 0 0 0 0
0 0 0 0 0 0 0 0 0 0 0 0 0 0 0 0 0 0 0 0 0 0 0 0 0 0 0 0 0 0 0 0 0 0 0 0 0 0
0 0 0 0 0 0 0 0 0 0 0 0 0 0 0 0 0 0 0 0 0 0 0 0 0 0 0 0 0 0 0 0 0 0 0 0 0 0
0 0 0 0 0 0 0 0 0 0 0 0 0 0 0 0 0 0 0 0 0 0 0 0 0 0 0 0 0 0 0 0 0 0 0 0 0 0
0 0 0 0 0 0 0 0 0 0 0 0 0 0 0 0 0 0 0 0 0 0 0 0 0 0 0 0 0 0 0 0 0 0 0 0 0 0
0 0 0 0 0 0 0 0 0 0 0 0 0 0 0 0 0 0 0 0 0 0 0 0 0 0 0 0 0 0 0 0 0 0 0 0 0 0
0 0 0 0 0 0 0 0 0 0 0 0 0 0 0 0 0 0 0 0 0 0 0 0 0 0 0 0 0 0 0 0 0 0 0 0 0 0
0 0 0 0 0 0 0 0 0 0 0 0 0 0 0 0 0 0 0 0 0 0 0 0 0 0 0 0 0 0 0 0 0 0 0 0 0 0
Wind_Speed
3 3 2 2 2 1 1 1 2 2 2 1 1 1 2 2 4 4 4 6 7 7 7 6 6 6 5 5 5 4 4 4 4 4 4 4 4 4
2 1 1 2 1 1 1 1 0 1 1 0 1 1 2 3 5 4 5 8 7 7 7 7 6 6 6 5 5 5 5 5 5 5 5 5 5 6
1 1 1 1 1 2 1 1 0 1 2 1 0 1 2 3 3 3 4 4 5 8 9 9 8 8 7 7 6 6 5 5 5 5 5 5 6 6
1 1 1 1 0 1 1 1 0 0 2 2 1 1 1 2 3 3 3 5 4 8 9 10 9 9 8 8 7 6 6 6 6 6 6 6 6 5
2 2 2 2 2 1 1 1 1 1 1 2 2 1 1 1 2 2 4 3 5 6 8 9 9 10 9 8 7 7 6 6 6 6 6 6 6 5
3 3 3 3 2 2 2 2 1 1 1 2 2 2 1 2 2 2 2 2 3 3 5 7 9 10 10 9 8 7 6 6 6 6 6 5 5 4
4 5 6 7 8 5 4 3 2 1 1 2 2 2 1 1 1 1 3 3 3 2 3 4 4 4 4 6 7 7 6 6 6 5 5 4 4 4
4 4 5 6 9 10 12 11 9 4 2 1 2 2 2 1 1 2 2 2 2 1 1 2 3 3 3 3 5 6 6 5 5 4 3 2 2 2
4 4 4 5 5 5 7 10 11 11 8 4 4 3 3 2 1 2 2 2 2 1 1 1 2 2 3 5 7 6 5 5 4 3 2 1 0 1
5 5 5 5 5 5 6 8 8 8 7 5 5 4 4 2 2 2 2 3 2 2 1 1 1 1 3 3 7 8 7 6 5 4 3 3 2 2
6 6 5 5 7 7 6 6 5 5 8 10 9 7 8 7 5 3 2 1 2 2 2 1 1 1 2 3 5 8 7 6 6 5 5 4 5 4
5 6 9 7 8 7 5 5 5 4 4 5 5 4 4 4 6 4 3 2 2 2 2 1 1 1 0 1 3 4 4 6 7 7 6 6 5 3
4 4 4 7 8 7 5 4 3 2 1 3 3 3 3 3 4 4 4 3 3 3 2 1 1 1 1 0 1 2 3 3 3 4 7 8 8 4
4 4 4 6 6 6 5 4 3 2 1 2 3 3 3 3 3 3 3 3 3 3 2 2 1 1 1 1 0 0 0 1 2 2 3 5 7 7
5 7 5 5 4 4 5 5 3 2 2 2 3 3 3 2 2 2 2 1 1 2 3 2 1 1 1 1 1 1 0 1 1 1 0 1 2 3
5 5 4 3 2 3 3 2 2 2 2 2 2 2 2 2 1 1 1 1 1 1 1 1 1 0 1 1 1 1 1 1 1 1 0 1 2 2
3 2 2 2 2 2 2 1 1 1 2 2 1 1 1 1 1 1 0 1 1 1 1 1 1 2 2 1 1 1 1 1 1 1 1 2 2 2
3 2 2 2 2 2 1 1 2 2 1 1 1 1 1 1 1 1 1 1 1 1 1 0 0 1 1 1 0 1 2 1 1 1 2 2 3 2
1 2 2 1 1 1 1 1 2 1 1 1 1 1 1 1 1 1 1 1 1 1 1 0 1 1 2 2 2 2 2 2 2 2 2 2 3 3
1 2 2 2 1 1 1 1 1 1 0 1 1 1 1 1 1 1 1 1 1 1 1 0 1 1 1 2 2 3 5 3 2 2 3 3 3 3
1 2 2 1 1 1 1 1 1 1 1 1 1 1 1 1 1 2 1 0 1 1 1 1 0 2 2 2 2 2 3 5 5 3 3 3 3 3
1 2 1 1 2 1 1 1 1 1 1 0 0 0 1 1 1 1 1 1 1 1 1 1 1 2 2 2 3 3 3 3 5 8 7 6 3 3
1 1 1 1 2 2 1 1 1 1 1 0 0 1 1 1 2 1 2 2 1 1 2 2 1 2 2 2 3 3 4 4 2 3 4 8 12 13
Wind_Direction
226 230 241 252 260 258 247 218 215 232 231 214 121 80 94 91 104 108 107 130 137 136 136 132 126 121 117 113 109 104 96 91 88 84 80 72 65 61
221 228 257 277 274 281 283 291 243 213 220 263 40 70 86 105 108 109 102 105 117 126 124 122 121 120 116 110 106 100 91 86 83 77 72 71 70 68
246 217 222 281 331 331 328 324 323 175 189 186 113 62 82 92 107 117 109 100 104 114 117 117 113 107 104 101 96 92 89 88 85 82 78 75 72 68
15 11 336 318 343 319 330 339 342 142 162 165 156 132 106 114 123 127 117 112 110 111 116 115 112 109 103 98 92 88 84 81 79 79 78 75 72 68
59 59 37 22 0 4 2 5 3 34 128 154 160 159 148 146 133 127 115 116 126 126 123 120 119 112 105 99 95 91 85 80 77 76 75 69 61 56
64 63 56 53 41 28 34 16 16 50 115 134 146 151 151 166 144 143 124 103 98 112 108 116 113 109 106 102 98 94 90 85 82 78 72 65 57 47
72 69 69 70 63 58 56 36 32 46 92 124 127 120 118 131 150 153 127 120 84 84 109 124 121 112 108 104 101 100 96 92 88 84 76 65 54 42
78 81 84 73 76 72 68 61 54 50 40 77 96 106 96 75 73 92 103 115 108 73 96 110 121 123 125 115 121 120 116 111 105 99 87 67 47 36
71 68 69 67 71 74 74 66 56 48 50 67 76 80 85 63 84 98 99 97 109 145 118 117 116 109 124 134 146 149 149 149 150 149 141 135 57 349
67 67 71 58 49 67 82 74 61 46 48 64 71 66 68 60 57 128 141 128 103 67 71 111 121 130 120 141 168 172 176 180 185 193 197 212 250 277
72 64 69 68 53 68 85 88 85 80 70 76 82 82 75 65 57 63 67 114 122 93 31 45 117 135 145 156 185 194 198 201 207 215 223 239 260 280
90 76 64 65 55 59 83 87 83 74 86 88 77 71 78 77 63 51 44 49 95 97 41 13 28 55 158 173 177 184 207 218 223 232 239 248 264 277
102 88 74 68 61 56 66 78 86 91 116 121 116 105 89 73 64 54 42 50 63 70 59 30 25 6 332 324 180 183 194 196 202 226 231 239 246 244
96 93 86 79 71 61 62 59 50 33 74 93 91 88 87 78 73 75 70 68 84 104 95 70 33 6 330 335 315 240 232 202 180 195 200 219 234 245
92 101 100 90 80 67 65 54 35 20 39 66 76 83 92 101 99 96 94 79 62 84 101 81 51 17 335 329 343 350 305 281 206 177 157 173 218 230
106 114 113 92 70 79 75 55 47 33 38 59 81 95 111 120 121 120 155 179 147 133 156 151 149 318 311 309 308 312 347 343 346 79 43 288 270 256
123 145 149 137 128 113 96 75 67 56 46 50 56 77 93 96 99 98 21 331 47 106 148 190 215 217 215 275 325 329 337 356 6 24 308 287 278 270
105 132 134 130 122 122 131 123 89 53 27 39 32 39 43 49 71 69 46 5 356 38 84 120 5 330 315 11 325 323 337 340 317 292 281 282 284 284
117 121 117 106 96 111 110 103 103 93 360 27 41 36 26 19 58 79 68 3 351 6 11 49 51 19 339 324 284 255 266 286 291 290 281 273 273 271
162 140 140 136 133 108 94 90 104 121 107 46 47 27 9 5 5 8 78 44 336 325 318 353 73 43 316 303 291 266 235 241 264 274 282 283 275 269
163 140 135 139 134 115 99 93 90 86 76 42 33 20 349 350 356 350 12 39 276 286 316 342 202 227 246 270 279 267 245 231 235 241 262 283 291 289
175 141 136 133 124 124 134 150 139 138 152 180 270 317 308 318 310 303 309 301 289 310 327 297 259 253 263 278 286 282 268 256 249 250 250 242 246 266
172 152 146 148 152 160 165 167 160 149 142 211 305 294 297 296 293 284 284 293 305 307 306 308 304 292 291 291 294 295 297 289 268 255 259 250 243 247